Time,TemperatureF,DewpointF,PressureIn,WindDirection,WindDirectionDegrees,WindSpeedMPH,WindSpeedGustMPH,Humidity,HourlyPrecipIn,Conditions,Clouds,dailyrainin,SolarRadiationWatts/m^2,SoftwareType,DateUTC
2013-06-20 00:05:00,60.3,53.8,30.06,SE,144,0.0,0.0,79,0.00,,,0.00,0,WeatherHawk,2013-06-20 05:05:00,
2013-06-20 00:10:00,59.7,53.8,30.05,SE,144,0.0,0.0,81,0.00,,,0.00,0,WeatherHawk,2013-06-20 05:10:00,
2013-06-20 00:15:00,59.1,53.9,30.05,SE,144,0.0,0.0,83,0.00,,,0.00,0,WeatherHawk,2013-06-20 05:15:00,
2013-06-20 00:20:00,60.6,55.4,30.06,SE,144,0.0,0.0,83,0.00,,,0.00,0,WeatherHawk,2013-06-20 05:20:00,
2013-06-20 00:25:00,58.4,53.5,30.06,SE,144,0.0,0.0,84,0.00,,,0.00,0,WeatherHawk,2013-06-20 05:25:00,
2013-06-20 00:30:00,59.1,54.6,30.05,SE,144,0.0,0.0,85,0.00,,,0.00,0,WeatherHawk,2013-06-20 05:30:00,
2013-06-20 00:35:00,59.9,55.4,30.06,SE,144,0.0,0.0,85,0.00,,,0.00,1,WeatherHawk,2013-06-20 05:35:00,
2013-06-20 00:40:00,60.8,54.9,30.05,SE,128,0.0,0.0,81,0.00,,,0.00,0,WeatherHawk,2013-06-20 05:40:00,
2013-06-20 00:45:00,58.9,53.4,30.06,SE,128,0.0,0.0,82,0.00,,,0.00,0,WeatherHawk,2013-06-20 05:45:00,
2013-06-20 00:50:00,58.3,53.2,30.06,SE,128,0.0,0.0,83,0.00,,,0.00,0,WeatherHawk,2013-06-20 05:50:00,
2013-06-20 00:55:00,59.5,55.3,30.06,SE,128,0.0,0.0,86,0.00,,,0.00,1,WeatherHawk,2013-06-20 05:55:00,
2013-06-20 01:00:00,59.5,55.9,30.05,SE,128,0.0,0.0,88,0.00,,,0.00,0,WeatherHawk,2013-06-20 06:00:00,
2013-06-20 01:05:00,58.3,55.1,30.06,SE,128,0.0,0.0,89,0.00,,,0.00,0,WeatherHawk,2013-06-20 06:05:00,
2013-06-20 01:10:00,58.1,54.9,30.05,SE,128,0.0,0.0,89,0.00,,,0.00,0,WeatherHawk,2013-06-20 06:10:00,
2013-06-20 01:15:00,59.3,56.7,30.06,SE,128,0.0,0.0,91,0.00,,,0.00,0,WeatherHawk,2013-06-20 06:15:00,
2013-06-20 01:20:00,59.1,56.1,30.05,SE,128,0.0,0.0,90,0.00,,,0.00,0,WeatherHawk,2013-06-20 06:20:00,
2013-06-20 01:25:00,58.3,55.4,30.06,SE,128,0.0,0.0,90,0.00,,,0.00,0,WeatherHawk,2013-06-20 06:25:00,
2013-06-20 01:30:00,57.9,55.6,30.05,SE,128,0.0,0.0,92,0.00,,,0.00,0,WeatherHawk,2013-06-20 06:30:00,
2013-06-20 01:35:00,56.4,53.8,30.06,SE,128,0.0,0.0,91,0.00,,,0.00,0,WeatherHawk,2013-06-20 06:35:00,
2013-06-20 01:40:00,56.1,53.8,30.07,SE,128,0.0,0.0,92,0.00,,,0.00,0,WeatherHawk,2013-06-20 06:40:00,
2013-06-20 01:45:00,58.7,56.6,30.05,SE,128,0.0,0.0,93,0.00,,,0.00,0,WeatherHawk,2013-06-20 06:45:00,
2013-06-20 01:50:00,57.6,55.3,30.07,SE,128,0.0,0.0,92,0.00,,,0.00,0,WeatherHawk,2013-06-20 06:50:00,
2013-06-20 01:55:00,57.8,55.5,30.06,SE,128,0.0,0.0,92,0.00,,,0.00,0,WeatherHawk,2013-06-20 06:55:00,
2013-06-20 02:00:00,58.3,55.9,30.06,SE,128,0.0,0.0,92,0.00,,,0.00,0,WeatherHawk,2013-06-20 07:00:00,
2013-06-20 02:05:00,57.9,55.2,30.07,SE,128,0.0,0.0,91,0.00,,,0.00,0,WeatherHawk,2013-06-20 07:05:00,
2013-06-20 02:10:00,57.1,54.2,30.06,SE,128,0.0,0.0,90,0.00,,,0.00,0,WeatherHawk,2013-06-20 07:10:00,
2013-06-20 02:15:00,59.0,55.4,30.06,SE,128,0.0,0.0,88,0.00,,,0.00,0,WeatherHawk,2013-06-20 07:15:00,
2013-06-20 02:20:00,59.3,53.4,30.07,SE,128,0.0,0.0,81,0.00,,,0.00,0,WeatherHawk,2013-06-20 07:20:00,
2013-06-20 02:25:00,59.2,51.6,30.06,SE,130,0.0,0.0,76,0.00,,,0.00,0,WeatherHawk,2013-06-20 07:25:00,
2013-06-20 02:30:00,57.6,51.2,30.05,SE,130,0.0,0.0,79,0.00,,,0.00,0,WeatherHawk,2013-06-20 07:30:00,
2013-06-20 02:35:00,58.0,51.2,30.07,SE,143,0.0,0.0,78,0.00,,,0.00,1,WeatherHawk,2013-06-20 07:35:00,
2013-06-20 02:40:00,57.0,50.6,30.06,SE,143,0.0,0.0,79,0.00,,,0.00,1,WeatherHawk,2013-06-20 07:40:00,
2013-06-20 02:45:00,57.8,51.6,30.07,SE,143,0.0,0.0,80,0.00,,,0.00,0,WeatherHawk,2013-06-20 07:45:00,
2013-06-20 02:50:00,58.3,51.8,30.06,SE,143,0.0,0.0,79,0.00,,,0.00,0,WeatherHawk,2013-06-20 07:50:00,
2013-06-20 02:55:00,56.7,51.0,30.06,SE,143,0.0,0.0,81,0.00,,,0.00,0,WeatherHawk,2013-06-20 07:55:00,
2013-06-20 03:00:00,57.3,51.6,30.06,SE,143,0.0,0.0,81,0.00,,,0.00,0,WeatherHawk,2013-06-20 08:00:00,
2013-06-20 03:05:00,58.2,51.7,30.05,SSE,148,1.0,0.0,79,0.00,,,0.00,0,WeatherHawk,2013-06-20 08:05:00,
2013-06-20 03:10:00,57.2,50.8,30.06,SSE,156,0.0,0.0,79,0.00,,,0.00,1,WeatherHawk,2013-06-20 08:10:00,
2013-06-20 03:15:00,58.2,51.7,30.05,SSE,155,0.0,0.0,79,0.00,,,0.00,0,WeatherHawk,2013-06-20 08:15:00,
2013-06-20 03:20:00,58.3,50.8,30.06,SSE,148,1.0,0.0,76,0.00,,,0.00,0,WeatherHawk,2013-06-20 08:20:00,
2013-06-20 03:25:00,57.8,50.7,30.07,SSE,148,0.0,0.0,77,0.00,,,0.00,0,WeatherHawk,2013-06-20 08:25:00,
2013-06-20 03:30:00,57.5,50.0,30.06,SSE,148,0.0,0.0,76,0.00,,,0.00,0,WeatherHawk,2013-06-20 08:30:00,
2013-06-20 03:35:00,57.2,49.4,30.06,SSE,148,0.0,0.0,75,0.00,,,0.00,1,WeatherHawk,2013-06-20 08:35:00,
2013-06-20 03:40:00,58.4,50.1,30.05,SSE,148,0.0,0.0,74,0.00,,,0.00,0,WeatherHawk,2013-06-20 08:40:00,
2013-06-20 03:45:00,57.0,49.1,30.06,SSE,148,0.0,0.0,75,0.00,,,0.00,0,WeatherHawk,2013-06-20 08:45:00,
2013-06-20 03:50:00,57.2,49.0,30.07,SSE,148,0.0,0.0,74,0.00,,,0.00,0,WeatherHawk,2013-06-20 08:50:00,
2013-06-20 03:55:00,57.2,47.9,30.07,SSE,164,0.0,0.0,71,0.00,,,0.00,0,WeatherHawk,2013-06-20 08:55:00,
2013-06-20 04:00:00,57.7,47.9,30.06,SSE,164,0.0,0.0,70,0.00,,,0.00,0,WeatherHawk,2013-06-20 09:00:00,
2013-06-20 04:05:00,59.0,47.6,30.06,SSE,154,1.0,0.0,66,0.00,,,0.00,0,WeatherHawk,2013-06-20 09:05:00,
2013-06-20 04:10:00,58.5,47.6,30.06,SSE,152,0.0,0.0,67,0.00,,,0.00,0,WeatherHawk,2013-06-20 09:10:00,
2013-06-20 04:15:00,57.4,46.5,30.06,SSE,155,0.0,0.0,67,0.00,,,0.00,0,WeatherHawk,2013-06-20 09:15:00,
2013-06-20 04:20:00,59.2,47.9,30.06,SE,133,1.0,0.0,66,0.00,,,0.00,0,WeatherHawk,2013-06-20 09:20:00,
2013-06-20 04:25:00,57.5,47.0,30.07,SSE,164,0.0,0.0,68,0.00,,,0.00,1,WeatherHawk,2013-06-20 09:25:00,
2013-06-20 04:30:00,58.3,46.6,30.06,SSE,164,1.0,0.0,65,0.00,,,0.00,1,WeatherHawk,2013-06-20 09:30:00,
2013-06-20 04:35:00,58.6,46.5,30.07,South,180,1.0,0.0,64,0.00,,,0.00,0,WeatherHawk,2013-06-20 09:35:00,
2013-06-20 04:40:00,58.3,47.0,30.07,SSE,165,0.0,0.0,66,0.00,,,0.00,0,WeatherHawk,2013-06-20 09:40:00,
2013-06-20 04:45:00,58.4,47.1,30.06,SSE,165,0.0,0.0,66,0.00,,,0.00,0,WeatherHawk,2013-06-20 09:45:00,
2013-06-20 04:50:00,58.9,47.2,30.06,SE,144,2.0,0.0,65,0.00,,,0.00,1,WeatherHawk,2013-06-20 09:50:00,
2013-06-20 04:55:00,58.5,47.2,30.06,SSE,160,0.0,0.0,66,0.00,,,0.00,0,WeatherHawk,2013-06-20 09:55:00,
2013-06-20 05:00:00,57.5,46.6,30.06,SSE,160,0.0,0.0,67,0.00,,,0.00,0,WeatherHawk,2013-06-20 10:00:00,
2013-06-20 05:05:00,57.4,47.3,30.08,South,170,0.0,0.0,69,0.00,,,0.00,1,WeatherHawk,2013-06-20 10:05:00,
2013-06-20 05:10:00,59.1,46.9,30.06,SE,140,2.0,0.0,64,0.00,,,0.00,0,WeatherHawk,2013-06-20 10:10:00,
2013-06-20 05:15:00,59.0,46.4,30.07,SE,139,0.0,0.0,63,0.00,,,0.00,3,WeatherHawk,2013-06-20 10:15:00,
2013-06-20 05:20:00,58.8,45.4,30.06,SE,138,0.0,0.0,61,0.00,,,0.00,3,WeatherHawk,2013-06-20 10:20:00,
2013-06-20 05:25:00,59.5,45.1,30.06,SE,142,2.0,0.0,59,0.00,,,0.00,5,WeatherHawk,2013-06-20 10:25:00,
2013-06-20 05:30:00,58.2,45.7,30.07,SE,142,0.0,0.0,63,0.00,,,0.00,7,WeatherHawk,2013-06-20 10:30:00,
2013-06-20 05:35:00,57.3,45.7,30.06,SE,142,0.0,0.0,65,0.00,,,0.00,9,WeatherHawk,2013-06-20 10:35:00,
2013-06-20 05:40:00,58.1,47.2,30.08,SE,142,0.0,0.0,67,0.00,,,0.00,11,WeatherHawk,2013-06-20 10:40:00,
2013-06-20 05:45:00,57.3,46.8,30.07,SE,142,0.0,0.0,68,0.00,,,0.00,13,WeatherHawk,2013-06-20 10:45:00,
2013-06-20 05:50:00,56.8,47.1,30.07,SE,142,0.0,0.0,70,0.00,,,0.00,16,WeatherHawk,2013-06-20 10:50:00,
2013-06-20 05:55:00,57.0,47.3,30.08,NNE,32,0.0,0.0,70,0.00,,,0.00,18,WeatherHawk,2013-06-20 10:55:00,
2013-06-20 06:00:00,57.4,47.6,30.08,NE,34,0.0,0.0,70,0.00,,,0.00,14,WeatherHawk,2013-06-20 11:00:00,
2013-06-20 06:05:00,57.4,48.1,30.07,SSW,202,0.0,0.0,71,0.00,,,0.00,19,WeatherHawk,2013-06-20 11:05:00,
2013-06-20 06:10:00,57.6,47.1,30.08,South,187,1.0,0.0,68,0.00,,,0.00,24,WeatherHawk,2013-06-20 11:10:00,
2013-06-20 06:15:00,58.1,47.9,30.08,South,188,0.0,0.0,69,0.00,,,0.00,27,WeatherHawk,2013-06-20 11:15:00,
2013-06-20 06:20:00,59.1,48.6,30.08,SSE,164,0.0,0.0,68,0.00,,,0.00,33,WeatherHawk,2013-06-20 11:20:00,
2013-06-20 06:25:00,59.1,47.7,30.08,SSE,156,0.0,0.0,66,0.00,,,0.00,54,WeatherHawk,2013-06-20 11:25:00,
2013-06-20 06:30:00,59.4,47.6,30.07,SSE,156,0.0,0.0,65,0.00,,,0.00,70,WeatherHawk,2013-06-20 11:30:00,
2013-06-20 06:35:00,60.8,47.2,30.08,SE,137,1.0,0.0,61,0.00,,,0.00,94,WeatherHawk,2013-06-20 11:35:00,
2013-06-20 06:40:00,60.9,48.2,30.08,South,170,0.0,0.0,63,0.00,,,0.00,101,WeatherHawk,2013-06-20 11:40:00,
2013-06-20 06:45:00,61.4,47.4,30.08,SSE,155,0.0,0.0,60,0.00,,,0.00,98,WeatherHawk,2013-06-20 11:45:00,
2013-06-20 06:50:00,61.8,46.4,30.08,SE,145,3.0,0.0,57,0.00,,,0.00,137,WeatherHawk,2013-06-20 11:50:00,
2013-06-20 06:55:00,62.9,46.5,30.08,SSE,165,3.0,0.0,55,0.00,,,0.00,166,WeatherHawk,2013-06-20 11:55:00,
2013-06-20 07:00:00,62.6,47.2,30.07,SE,141,1.0,-999.0,57,0.00,,,0.00,169,WeatherHawk,2013-06-20 12:00:00,
2013-06-20 07:06:00,63.5,46.6,30.07,SSE,161,2.0,0.0,54,0.00,,,0.00,205,WeatherHawk,2013-06-20 12:06:00,
2013-06-20 07:11:00,63.6,46.2,30.09,South,182,2.0,0.0,53,0.00,,,0.00,214,WeatherHawk,2013-06-20 12:11:00,
2013-06-20 07:16:00,63.6,45.6,30.08,SSE,160,4.0,0.0,52,0.00,,,0.00,226,WeatherHawk,2013-06-20 12:16:00,
2013-06-20 07:22:00,64.3,45.7,30.08,SE,145,4.0,0.0,51,0.00,,,0.00,243,WeatherHawk,2013-06-20 12:22:00,
2013-06-20 07:27:00,64.4,45.3,30.09,SE,144,4.0,0.0,50,0.00,,,0.00,255,WeatherHawk,2013-06-20 12:27:00,
2013-06-20 07:32:00,65.0,46.4,30.09,SSE,163,0.0,0.0,51,0.00,,,0.00,271,WeatherHawk,2013-06-20 12:32:00,
2013-06-20 07:38:00,65.6,46.5,30.09,SSE,159,3.0,0.0,50,0.00,,,0.00,288,WeatherHawk,2013-06-20 12:38:00,
2013-06-20 07:43:00,65.9,46.7,30.09,SSE,148,3.0,0.0,50,0.00,,,0.00,301,WeatherHawk,2013-06-20 12:43:00,
2013-06-20 07:48:00,65.6,46.4,30.09,SSE,153,3.0,0.0,50,0.00,,,0.00,316,WeatherHawk,2013-06-20 12:48:00,
2013-06-20 07:54:00,67.2,49.5,30.09,South,183,0.0,0.0,53,0.00,,,0.00,333,WeatherHawk,2013-06-20 12:54:00,
2013-06-20 07:59:00,68.2,49.9,30.09,SSE,160,2.0,0.0,52,0.00,,,0.00,347,WeatherHawk,2013-06-20 12:59:00,
2013-06-20 08:05:00,68.2,48.3,30.09,South,188,4.0,0.0,49,0.00,,,0.00,360,WeatherHawk,2013-06-20 13:05:00,
2013-06-20 08:10:00,69.4,49.9,30.09,South,178,0.0,0.0,50,0.00,,,0.00,378,WeatherHawk,2013-06-20 13:10:00,
2013-06-20 08:15:00,68.2,47.8,30.09,SSE,158,1.0,0.0,48,0.00,,,0.00,392,WeatherHawk,2013-06-20 13:15:00,
2013-06-20 08:20:00,70.0,49.4,30.08,WSW,237,5.0,0.0,48,0.00,,,0.00,410,WeatherHawk,2013-06-20 13:20:00,
2013-06-20 08:25:00,70.0,51.1,30.09,SW,228,2.0,0.0,51,0.00,,,0.00,424,WeatherHawk,2013-06-20 13:25:00,
2013-06-20 08:30:00,70.1,50.0,30.09,SSW,192,3.0,0.0,49,0.00,,,0.00,444,WeatherHawk,2013-06-20 13:30:00,
2013-06-20 08:35:00,70.0,49.4,30.09,SSE,166,3.0,0.0,48,0.00,,,0.00,462,WeatherHawk,2013-06-20 13:35:00,
2013-06-20 08:41:00,71.7,51.5,30.09,SSW,210,1.0,0.0,49,0.00,,,0.00,473,WeatherHawk,2013-06-20 13:41:00,
2013-06-20 08:46:00,71.6,50.2,30.09,South,191,4.0,0.0,47,0.00,,,0.00,424,WeatherHawk,2013-06-20 13:46:00,
2013-06-20 08:51:00,72.2,51.4,30.09,SW,224,2.0,0.0,48,0.00,,,0.00,496,WeatherHawk,2013-06-20 13:51:00,
2013-06-20 08:57:00,73.4,53.1,30.10,SSE,161,2.0,0.0,49,0.00,,,0.00,513,WeatherHawk,2013-06-20 13:57:00,
2013-06-20 09:02:00,73.1,52.3,30.09,SSW,195,0.0,0.0,48,0.00,,,0.00,527,WeatherHawk,2013-06-20 14:02:00,
2013-06-20 09:07:00,72.0,50.6,30.10,South,187,5.0,0.0,47,0.00,,,0.00,546,WeatherHawk,2013-06-20 14:07:00,
2013-06-20 09:12:00,72.0,50.6,30.09,South,189,6.0,0.0,47,0.00,,,0.00,555,WeatherHawk,2013-06-20 14:12:00,
2013-06-20 09:17:00,73.3,52.9,30.10,South,172,3.0,0.0,49,0.00,,,0.00,569,WeatherHawk,2013-06-20 14:17:00,
2013-06-20 09:23:00,73.3,52.4,30.09,South,190,5.0,0.0,48,0.00,,,0.00,589,WeatherHawk,2013-06-20 14:23:00,
2013-06-20 09:28:00,73.6,54.3,30.10,South,182,2.0,0.0,51,0.00,,,0.00,601,WeatherHawk,2013-06-20 14:28:00,
2013-06-20 09:34:00,74.3,53.3,30.10,SW,227,5.0,0.0,48,0.00,,,0.00,611,WeatherHawk,2013-06-20 14:34:00,
2013-06-20 09:40:00,74.9,54.5,30.09,SW,224,4.0,0.0,49,0.00,,,0.00,627,WeatherHawk,2013-06-20 14:40:00,
2013-06-20 09:45:00,74.9,53.9,30.09,SW,218,3.0,0.0,48,0.00,,,0.00,636,WeatherHawk,2013-06-20 14:45:00,
2013-06-20 09:50:00,74.8,53.8,30.10,South,189,5.0,0.0,48,0.00,,,0.00,646,WeatherHawk,2013-06-20 14:50:00,
2013-06-20 09:55:00,75.8,54.7,30.10,SSE,166,5.0,0.0,48,0.00,,,0.00,662,WeatherHawk,2013-06-20 14:55:00,
2013-06-20 10:00:00,77.0,56.9,30.09,SSW,211,2.0,0.0,50,0.00,,,0.00,669,WeatherHawk,2013-06-20 15:00:00,
2013-06-20 10:06:00,76.2,55.1,30.09,South,180,4.0,0.0,48,0.00,,,0.00,686,WeatherHawk,2013-06-20 15:06:00,
2013-06-20 10:12:00,76.4,54.6,30.10,SSE,153,3.0,0.0,47,0.00,,,0.00,698,WeatherHawk,2013-06-20 15:12:00,
2013-06-20 10:18:00,76.1,53.2,30.09,SSE,150,3.0,0.0,45,0.00,,,0.00,714,WeatherHawk,2013-06-20 15:18:00,
2013-06-20 10:24:00,77.7,55.3,30.09,SSE,148,4.0,0.0,46,0.00,,,0.00,723,WeatherHawk,2013-06-20 15:24:00,
2013-06-20 10:30:00,78.8,57.5,30.10,SSE,166,2.0,0.0,48,0.00,,,0.00,729,WeatherHawk,2013-06-20 15:30:00,
2013-06-20 10:35:00,76.8,53.8,30.10,SE,137,5.0,0.0,45,0.00,,,0.00,740,WeatherHawk,2013-06-20 15:35:00,
2013-06-20 10:40:00,77.9,55.4,30.10,South,178,6.0,0.0,46,0.00,,,0.00,748,WeatherHawk,2013-06-20 15:40:00,
2013-06-20 10:45:00,79.6,58.8,30.11,South,179,5.0,0.0,49,0.00,,,0.00,761,WeatherHawk,2013-06-20 15:45:00,
2013-06-20 10:50:00,78.3,55.8,30.10,SW,214,3.0,0.0,46,0.00,,,0.00,766,WeatherHawk,2013-06-20 15:50:00,
2013-06-20 10:55:00,78.6,54.8,30.10,South,176,4.0,0.0,44,0.00,,,0.00,775,WeatherHawk,2013-06-20 15:55:00,
2013-06-20 11:01:00,78.4,54.0,30.11,SSE,167,5.0,0.0,43,0.00,,,0.00,783,WeatherHawk,2013-06-20 16:01:00,
2013-06-20 11:06:00,77.3,53.1,30.10,SE,140,7.0,0.0,43,0.00,,,0.00,794,WeatherHawk,2013-06-20 16:06:00,
2013-06-20 11:11:00,81.1,61.8,30.10,South,182,1.0,0.0,52,0.00,,,0.00,797,WeatherHawk,2013-06-20 16:11:00,
2013-06-20 11:16:00,78.1,52.4,30.11,SSE,163,7.0,0.0,41,0.00,,,0.00,804,WeatherHawk,2013-06-20 16:16:00,
2013-06-20 11:22:00,78.2,53.2,30.11,SSE,150,4.0,0.0,42,0.00,,,0.00,807,WeatherHawk,2013-06-20 16:22:00,
2013-06-20 11:27:00,79.0,54.0,30.11,SE,141,5.0,0.0,42,0.00,,,0.00,819,WeatherHawk,2013-06-20 16:27:00,
2013-06-20 11:33:00,81.8,59.0,30.11,SSE,168,1.0,0.0,46,0.00,,,0.00,826,WeatherHawk,2013-06-20 16:33:00,
2013-06-20 11:38:00,79.3,52.9,30.10,SSE,154,4.0,0.0,40,0.00,,,0.00,831,WeatherHawk,2013-06-20 16:38:00,
2013-06-20 11:45:00,79.0,51.9,30.10,SSE,151,8.0,0.0,39,0.00,,,0.00,834,WeatherHawk,2013-06-20 16:45:00,
2013-06-20 11:50:00,80.9,55.6,30.10,SSE,149,3.0,0.0,42,0.00,,,0.00,838,WeatherHawk,2013-06-20 16:50:00,
2013-06-20 11:55:00,81.7,57.7,30.11,South,189,3.0,0.0,44,0.00,,,0.00,844,WeatherHawk,2013-06-20 16:55:00,
2013-06-20 12:00:00,79.5,52.3,30.10,SSE,147,9.0,0.0,39,0.00,,,0.00,852,WeatherHawk,2013-06-20 17:00:00,
2013-06-20 12:06:00,81.0,54.3,30.09,SSW,206,3.0,0.0,40,0.00,,,0.00,853,WeatherHawk,2013-06-20 17:06:00,
2013-06-20 12:12:00,80.1,52.9,30.09,SE,146,6.0,0.0,39,0.00,,,0.00,856,WeatherHawk,2013-06-20 17:12:00,
2013-06-20 12:18:00,80.9,55.0,30.09,SE,143,6.0,0.0,41,0.00,,,0.00,858,WeatherHawk,2013-06-20 17:18:00,
2013-06-20 12:24:00,81.6,55.6,30.09,SE,132,5.0,0.0,41,0.00,,,0.00,856,WeatherHawk,2013-06-20 17:24:00,
2013-06-20 12:29:00,81.2,53.1,30.09,SSW,207,6.0,0.0,38,0.00,,,0.00,866,WeatherHawk,2013-06-20 17:29:00,
2013-06-20 12:35:00,82.1,55.4,30.10,South,177,4.0,0.0,40,0.00,,,0.00,868,WeatherHawk,2013-06-20 17:35:00,
2013-06-20 12:40:00,81.7,52.8,30.09,SSE,151,6.0,0.0,37,0.00,,,0.00,866,WeatherHawk,2013-06-20 17:40:00,
2013-06-20 12:45:00,81.5,53.4,30.08,SE,128,8.0,0.0,38,0.00,,,0.00,847,WeatherHawk,2013-06-20 17:45:00,
2013-06-20 12:50:00,81.7,54.3,30.08,SSW,203,6.0,0.0,39,0.00,,,0.00,854,WeatherHawk,2013-06-20 17:50:00,
2013-06-20 12:57:00,81.5,51.2,30.08,SSE,155,7.0,0.0,35,0.00,,,0.00,870,WeatherHawk,2013-06-20 17:57:00,
2013-06-20 13:02:00,83.6,53.8,30.08,ESE,108,5.0,0.0,36,0.00,,,0.00,870,WeatherHawk,2013-06-20 18:02:00,
2013-06-20 13:09:00,82.1,50.9,30.07,South,177,6.0,0.0,34,0.00,,,0.00,865,WeatherHawk,2013-06-20 18:09:00,
2013-06-20 13:15:00,82.6,48.0,30.07,South,172,7.0,0.0,30,0.00,,,0.00,870,WeatherHawk,2013-06-20 18:15:00,
2013-06-20 13:20:00,83.7,53.1,30.07,SW,234,6.0,0.0,35,0.00,,,0.00,872,WeatherHawk,2013-06-20 18:20:00,
2013-06-20 13:26:00,84.1,55.0,30.07,SSW,199,3.0,0.0,37,0.00,,,0.00,869,WeatherHawk,2013-06-20 18:26:00,
2013-06-20 13:31:00,83.7,52.3,30.07,South,180,7.0,0.0,34,0.00,,,0.00,864,WeatherHawk,2013-06-20 18:31:00,
2013-06-20 13:36:00,84.1,51.9,30.07,South,179,3.0,0.0,33,0.00,,,0.00,863,WeatherHawk,2013-06-20 18:36:00,
2013-06-20 13:43:00,84.5,53.0,30.07,SSW,209,1.0,0.0,34,0.00,,,0.00,858,WeatherHawk,2013-06-20 18:43:00,
2013-06-20 13:49:00,84.0,51.8,30.07,South,179,3.0,0.0,33,0.00,,,0.00,844,WeatherHawk,2013-06-20 18:49:00,
2013-06-20 13:55:00,84.1,52.7,30.07,SSW,208,2.0,0.0,34,0.00,,,0.00,844,WeatherHawk,2013-06-20 18:55:00,
2013-06-20 14:00:00,83.5,48.8,30.06,SE,141,7.0,0.0,30,0.00,,,0.00,836,WeatherHawk,2013-06-20 19:00:00,
2013-06-20 14:05:00,83.5,49.6,30.07,South,186,6.0,0.0,31,0.00,,,0.00,836,WeatherHawk,2013-06-20 19:05:00,
2013-06-20 14:10:00,84.2,51.9,30.06,SSE,147,6.0,0.0,33,0.00,,,0.00,836,WeatherHawk,2013-06-20 19:10:00,
2013-06-20 14:15:00,83.7,49.8,30.06,South,183,6.0,0.0,31,0.00,,,0.00,831,WeatherHawk,2013-06-20 19:15:00,
2013-06-20 14:21:00,84.1,48.4,30.06,SE,130,8.0,0.0,29,0.00,,,0.00,824,WeatherHawk,2013-06-20 19:21:00,
2013-06-20 14:29:00,84.2,51.1,30.06,SSE,153,5.0,0.0,32,0.00,,,0.00,819,WeatherHawk,2013-06-20 19:29:00,
2013-06-20 14:34:00,83.5,51.4,30.06,South,170,6.0,0.0,33,0.00,,,0.00,804,WeatherHawk,2013-06-20 19:34:00,
2013-06-20 14:40:00,84.6,53.1,30.06,South,169,4.0,0.0,34,0.00,,,0.00,804,WeatherHawk,2013-06-20 19:40:00,
2013-06-20 14:45:00,83.9,48.2,30.05,SSE,165,7.0,0.0,29,0.00,,,0.00,796,WeatherHawk,2013-06-20 19:45:00,
2013-06-20 14:50:00,84.2,51.9,30.05,SSE,156,4.0,0.0,33,0.00,,,0.00,778,WeatherHawk,2013-06-20 19:50:00,
2013-06-20 14:55:00,84.7,50.7,30.06,SSE,166,5.0,0.0,31,0.00,,,0.00,771,WeatherHawk,2013-06-20 19:55:00,
2013-06-20 15:00:00,83.9,48.2,30.05,SSW,198,7.0,-999.0,29,0.00,,,0.00,768,WeatherHawk,2013-06-20 20:00:00,
2013-06-20 15:07:00,84.7,50.7,30.05,SSE,168,6.0,0.0,31,0.00,,,0.00,765,WeatherHawk,2013-06-20 20:07:00,
2013-06-20 15:13:00,84.8,51.6,30.06,SSE,152,4.0,0.0,32,0.00,,,0.00,744,WeatherHawk,2013-06-20 20:13:00,
2013-06-20 15:18:00,85.4,53.8,30.05,South,175,1.0,0.0,34,0.00,,,0.00,732,WeatherHawk,2013-06-20 20:18:00,
2013-06-20 15:23:00,84.4,49.6,30.05,SSE,165,7.0,0.0,30,0.00,,,0.00,737,WeatherHawk,2013-06-20 20:23:00,
2013-06-20 15:29:00,84.6,50.6,30.05,South,171,4.0,0.0,31,0.00,,,0.00,721,WeatherHawk,2013-06-20 20:29:00,
2013-06-20 15:35:00,84.5,51.4,30.05,South,185,6.0,0.0,32,0.00,,,0.00,687,WeatherHawk,2013-06-20 20:35:00,
2013-06-20 15:40:00,84.0,51.8,30.04,SE,137,3.0,0.0,33,0.00,,,0.00,665,WeatherHawk,2013-06-20 20:40:00,
2013-06-20 15:45:00,84.1,50.2,30.04,SSE,168,4.0,0.0,31,0.00,,,0.00,687,WeatherHawk,2013-06-20 20:45:00,
2013-06-20 15:50:00,84.5,50.5,30.04,SSE,156,6.0,0.0,31,0.00,,,0.00,670,WeatherHawk,2013-06-20 20:50:00,
2013-06-20 15:55:00,84.1,49.3,30.04,SE,126,5.0,0.0,30,0.00,,,0.00,647,WeatherHawk,2013-06-20 20:55:00,
2013-06-20 16:00:00,84.4,52.1,30.04,SSE,157,2.0,0.0,33,0.00,,,0.00,648,WeatherHawk,2013-06-20 21:00:00,
2013-06-20 16:07:00,85.3,53.7,30.04,SE,146,5.0,0.0,34,0.00,,,0.00,636,WeatherHawk,2013-06-20 21:07:00,
2013-06-20 16:12:00,84.1,51.9,30.03,SSE,166,4.0,0.0,33,0.00,,,0.00,619,WeatherHawk,2013-06-20 21:12:00,
2013-06-20 16:18:00,85.2,55.2,30.04,SE,146,5.0,0.0,36,0.00,,,0.00,604,WeatherHawk,2013-06-20 21:18:00,
2013-06-20 16:23:00,85.3,54.5,30.04,SSE,154,7.0,0.0,35,0.00,,,0.00,591,WeatherHawk,2013-06-20 21:23:00,
2013-06-20 16:29:00,84.2,54.3,30.04,SSE,167,3.0,0.0,36,0.00,,,0.00,569,WeatherHawk,2013-06-20 21:29:00,
2013-06-20 16:35:00,84.1,53.5,30.03,SE,140,9.0,0.0,35,0.00,,,0.00,563,WeatherHawk,2013-06-20 21:35:00,
2013-06-20 16:40:00,84.3,52.9,30.03,SE,133,6.0,0.0,34,0.00,,,0.00,542,WeatherHawk,2013-06-20 21:40:00,
2013-06-20 16:45:00,84.1,54.2,30.03,ESE,107,7.0,0.0,36,0.00,,,0.00,509,WeatherHawk,2013-06-20 21:45:00,
2013-06-20 16:50:00,84.5,56.0,30.03,South,185,5.0,0.0,38,0.00,,,0.00,514,WeatherHawk,2013-06-20 21:50:00,
2013-06-20 16:57:00,84.2,55.8,30.02,South,181,10.0,0.0,38,0.00,,,0.00,495,WeatherHawk,2013-06-20 21:57:00,
2013-06-20 17:03:00,84.1,57.2,30.02,South,180,3.0,0.0,40,0.00,,,0.00,474,WeatherHawk,2013-06-20 22:03:00,
2013-06-20 17:09:00,84.0,55.7,30.01,South,173,4.0,0.0,38,0.00,,,0.00,456,WeatherHawk,2013-06-20 22:09:00,
2013-06-20 17:15:00,84.0,57.0,30.01,South,181,6.0,0.0,40,0.00,,,0.00,448,WeatherHawk,2013-06-20 22:15:00,
2013-06-20 17:20:00,84.1,57.2,30.01,SE,142,5.0,0.0,40,0.00,,,0.00,424,WeatherHawk,2013-06-20 22:20:00,
2013-06-20 17:25:00,83.7,57.5,30.01,SSE,149,5.0,0.0,41,0.00,,,0.00,437,WeatherHawk,2013-06-20 22:25:00,
2013-06-20 17:30:00,84.3,56.6,30.01,SE,127,4.0,0.0,39,0.00,,,0.00,409,WeatherHawk,2013-06-20 22:30:00,
2013-06-20 17:35:00,83.9,57.0,30.01,South,177,6.0,0.0,40,0.00,,,0.00,415,WeatherHawk,2013-06-20 22:35:00,
2013-06-20 17:40:00,84.4,56.0,30.01,South,178,6.0,0.0,38,0.00,,,0.00,394,WeatherHawk,2013-06-20 22:40:00,
2013-06-20 17:47:00,83.7,56.1,30.00,SSW,194,4.0,0.0,39,0.00,,,0.00,376,WeatherHawk,2013-06-20 22:47:00,
2013-06-20 17:53:00,84.2,56.5,30.00,ESE,120,5.0,0.0,39,0.00,,,0.00,340,WeatherHawk,2013-06-20 22:53:00,
2013-06-20 17:59:00,84.4,57.4,30.01,South,182,4.0,0.0,40,0.00,,,0.00,306,WeatherHawk,2013-06-20 22:59:00,
2013-06-20 18:05:00,84.2,55.8,30.00,SSE,158,6.0,0.0,38,0.00,,,0.00,291,WeatherHawk,2013-06-20 23:05:00,
2013-06-20 18:10:00,84.1,57.1,30.00,SE,146,7.0,0.0,40,0.00,,,0.00,267,WeatherHawk,2013-06-20 23:10:00,
2013-06-20 18:15:00,84.2,57.9,30.00,SE,143,2.0,0.0,41,0.00,,,0.00,286,WeatherHawk,2013-06-20 23:15:00,
2013-06-20 18:20:00,84.0,59.0,30.00,SSE,160,1.0,0.0,43,0.00,,,0.00,284,WeatherHawk,2013-06-20 23:20:00,
2013-06-20 18:25:00,84.6,58.2,30.00,SE,127,4.0,0.0,41,0.00,,,0.00,257,WeatherHawk,2013-06-20 23:25:00,
2013-06-20 18:30:00,84.1,57.8,30.00,SE,144,7.0,0.0,41,0.00,,,0.00,242,WeatherHawk,2013-06-20 23:30:00,
2013-06-20 18:37:00,84.0,58.5,29.99,SSE,167,4.0,0.0,42,0.00,,,0.00,237,WeatherHawk,2013-06-20 23:37:00,
2013-06-20 18:42:00,84.1,57.8,30.00,SSE,155,7.0,0.0,41,0.00,,,0.00,220,WeatherHawk,2013-06-20 23:42:00,
2013-06-20 18:47:00,83.6,59.3,30.00,South,181,4.0,0.0,44,0.00,,,0.00,190,WeatherHawk,2013-06-20 23:47:00,
2013-06-20 18:52:00,82.6,59.7,30.00,South,183,3.0,0.0,46,0.00,,,0.00,183,WeatherHawk,2013-06-20 23:52:00,
2013-06-20 18:58:00,82.2,59.9,30.00,SSE,164,1.0,0.0,47,0.00,,,0.00,175,WeatherHawk,2013-06-20 23:58:00,
2013-06-20 19:03:00,82.4,60.1,30.00,SE,144,2.0,0.0,47,0.00,,,0.00,157,WeatherHawk,2013-06-21 00:03:00,
2013-06-20 19:09:00,82.5,60.2,30.00,SSE,157,4.0,0.0,47,0.00,,,0.00,143,WeatherHawk,2013-06-21 00:09:00,
2013-06-20 19:14:00,82.5,60.2,30.00,SSE,155,3.0,0.0,47,0.00,,,0.00,130,WeatherHawk,2013-06-21 00:14:00,
2013-06-20 19:20:00,82.2,61.1,30.00,SE,143,2.0,0.0,49,0.00,,,0.00,110,WeatherHawk,2013-06-21 00:20:00,
2013-06-20 19:25:00,81.8,61.3,30.00,SSE,155,2.0,0.0,50,0.00,,,0.00,95,WeatherHawk,2013-06-21 00:25:00,
2013-06-20 19:30:00,81.2,60.2,30.00,SSE,158,1.0,0.0,49,0.00,,,0.00,83,WeatherHawk,2013-06-21 00:30:00,
2013-06-20 19:35:00,81.1,61.3,30.00,SSE,153,2.0,0.0,51,0.00,,,0.00,70,WeatherHawk,2013-06-21 00:35:00,
2013-06-20 19:40:00,80.6,60.8,29.99,SSE,151,4.0,0.0,51,0.00,,,0.00,54,WeatherHawk,2013-06-21 00:40:00,
2013-06-20 19:45:00,79.7,61.0,30.00,South,181,0.0,0.0,53,0.00,,,0.00,36,WeatherHawk,2013-06-21 00:45:00,
2013-06-20 19:50:00,79.3,61.1,29.99,SSE,147,3.0,0.0,54,0.00,,,0.00,24,WeatherHawk,2013-06-21 00:50:00,
2013-06-20 19:56:00,79.6,61.4,30.00,SSE,149,2.0,0.0,54,0.00,,,0.00,21,WeatherHawk,2013-06-21 00:56:00,
2013-06-20 20:02:00,78.9,61.3,30.00,South,179,0.0,0.0,55,0.00,,,0.00,19,WeatherHawk,2013-06-21 01:02:00,
2013-06-20 20:08:00,77.9,61.4,29.99,SSE,149,0.0,0.0,57,0.00,,,0.00,15,WeatherHawk,2013-06-21 01:08:00,
2013-06-20 20:13:00,77.9,61.9,29.99,SSE,153,0.0,0.0,58,0.00,,,0.00,13,WeatherHawk,2013-06-21 01:13:00,
2013-06-20 20:18:00,77.5,62.1,30.00,SSE,153,0.0,0.0,59,0.00,,,0.00,10,WeatherHawk,2013-06-21 01:18:00,
2013-06-20 20:24:00,77.1,62.1,30.00,SSE,153,0.0,0.0,60,0.00,,,0.00,8,WeatherHawk,2013-06-21 01:24:00,
2013-06-20 20:29:00,76.7,62.2,30.00,SSE,153,0.0,0.0,61,0.00,,,0.00,5,WeatherHawk,2013-06-21 01:29:00,
2013-06-20 20:34:00,74.4,61.0,30.00,SSE,153,0.0,0.0,63,0.00,,,0.00,3,WeatherHawk,2013-06-21 01:34:00,
2013-06-20 20:39:00,76.0,62.5,30.00,SSE,153,0.0,0.0,63,0.00,,,0.00,3,WeatherHawk,2013-06-21 01:39:00,
2013-06-20 20:44:00,78.0,63.5,30.01,SSE,152,4.0,0.0,61,0.00,,,0.00,2,WeatherHawk,2013-06-21 01:44:00,
2013-06-20 20:49:00,77.9,62.8,30.01,ESE,118,0.0,0.0,60,0.00,,,0.00,0,WeatherHawk,2013-06-21 01:49:00,
2013-06-20 20:54:00,77.8,63.2,30.01,ESE,117,2.0,0.0,61,0.00,,,0.00,1,WeatherHawk,2013-06-21 01:54:00,
2013-06-20 20:59:00,78.0,63.9,30.01,SE,145,5.0,0.0,62,0.00,,,0.00,0,WeatherHawk,2013-06-21 01:59:00,
2013-06-20 21:05:00,77.3,63.7,30.01,SE,130,5.0,0.0,63,0.00,,,0.00,0,WeatherHawk,2013-06-21 02:05:00,
2013-06-20 21:10:00,76.9,63.7,30.01,SE,138,4.0,0.0,64,0.00,,,0.00,0,WeatherHawk,2013-06-21 02:10:00,
2013-06-20 21:15:00,76.6,64.0,30.01,SE,136,4.0,0.0,65,0.00,,,0.00,0,WeatherHawk,2013-06-21 02:15:00,
2013-06-20 21:20:00,76.3,64.6,30.02,SE,133,4.0,0.0,67,0.00,,,0.00,0,WeatherHawk,2013-06-21 02:20:00,
2013-06-20 21:25:00,76.3,64.1,30.02,SE,126,5.0,0.0,66,0.00,,,0.00,0,WeatherHawk,2013-06-21 02:25:00,
2013-06-20 21:31:00,76.2,64.4,30.03,SE,136,7.0,0.0,67,0.00,,,0.00,0,WeatherHawk,2013-06-21 02:31:00,
2013-06-20 21:37:00,75.7,63.9,30.02,ESE,110,4.0,0.0,67,0.00,,,0.00,0,WeatherHawk,2013-06-21 02:37:00,
2013-06-20 21:43:00,75.1,63.4,30.03,SE,125,1.0,0.0,67,0.00,,,0.00,0,WeatherHawk,2013-06-21 02:43:00,
2013-06-20 21:48:00,75.2,63.5,30.02,East,80,4.0,0.0,67,0.00,,,0.00,0,WeatherHawk,2013-06-21 02:48:00,
2013-06-20 21:53:00,74.8,63.1,30.03,ESE,116,3.0,0.0,67,0.00,,,0.00,0,WeatherHawk,2013-06-21 02:53:00,
2013-06-20 21:59:00,74.8,63.1,30.03,SE,145,4.0,0.0,67,0.00,,,0.00,0,WeatherHawk,2013-06-21 02:59:00,
2013-06-20 22:05:00,74.5,62.8,30.03,SE,140,5.0,0.0,67,0.00,,,0.00,1,WeatherHawk,2013-06-21 03:05:00,
2013-06-20 22:10:00,74.0,62.4,30.03,SE,141,4.0,0.0,67,0.00,,,0.00,0,WeatherHawk,2013-06-21 03:10:00,
2013-06-20 22:15:00,74.5,62.8,30.03,ESE,110,5.0,0.0,67,0.00,,,0.00,0,WeatherHawk,2013-06-21 03:15:00,
2013-06-20 22:21:00,73.8,62.6,30.02,SE,129,2.0,0.0,68,0.00,,,0.00,1,WeatherHawk,2013-06-21 03:21:00,
2013-06-20 22:27:00,73.8,62.2,30.04,SSE,160,6.0,0.0,67,0.00,,,0.00,0,WeatherHawk,2013-06-21 03:27:00,
2013-06-20 22:37:00,73.7,62.1,30.03,ESE,108,2.0,0.0,67,0.00,,,0.00,1,WeatherHawk,2013-06-21 03:37:00,
2013-06-20 22:50:00,73.5,61.8,30.02,SSE,150,3.0,0.0,67,0.00,,,0.00,0,WeatherHawk,2013-06-21 03:50:00,
2013-06-20 22:57:00,73.5,61.8,30.02,SSE,150,3.0,0.0,67,0.00,,,0.00,0,WeatherHawk,2013-06-21 03:57:00,
2013-06-20 23:02:00,73.1,61.5,30.03,SE,146,5.0,-999.0,67,0.00,,,0.00,0,WeatherHawk,2013-06-21 04:02:00,
2013-06-20 23:05:00,72.4,61.2,30.02,SE,129,3.0,-999.0,68,0.00,,,0.00,0,WeatherHawk,2013-06-21 04:05:00,
2013-06-20 23:10:00,72.6,61.5,30.03,SE,146,8.0,0.0,68,0.00,,,0.00,0,WeatherHawk,2013-06-21 04:10:00,
2013-06-20 23:15:00,72.4,61.2,30.03,SE,140,4.0,0.0,68,0.00,,,0.00,0,WeatherHawk,2013-06-21 04:15:00,
2013-06-20 23:20:00,72.4,61.2,30.03,SSE,148,2.0,0.0,68,0.00,,,0.00,0,WeatherHawk,2013-06-21 04:20:00,
2013-06-20 23:25:00,71.9,61.2,30.02,ESE,122,4.0,0.0,69,0.00,,,0.00,0,WeatherHawk,2013-06-21 04:25:00,
2013-06-20 23:30:00,71.9,60.8,30.03,SSE,153,6.0,0.0,68,0.00,,,0.00,0,WeatherHawk,2013-06-21 04:30:00,
2013-06-20 23:35:00,71.4,60.7,30.03,South,175,3.0,0.0,69,0.00,,,0.00,0,WeatherHawk,2013-06-21 04:35:00,
2013-06-20 23:40:00,72.0,61.2,30.04,SE,133,6.0,0.0,69,0.00,,,0.00,1,WeatherHawk,2013-06-21 04:40:00,
2013-06-20 23:45:00,71.4,61.1,30.03,SSE,159,3.0,0.0,70,0.00,,,0.00,0,WeatherHawk,2013-06-21 04:45:00,
2013-06-20 23:51:00,71.3,61.0,30.03,SE,138,1.0,0.0,70,0.00,,,0.00,0,WeatherHawk,2013-06-21 04:51:00,
2013-06-20 23:57:00,71.3,61.0,30.03,SE,139,4.0,0.0,70,0.00,,,0.00,0,WeatherHawk,2013-06-21 04:57:00,